[[{"header":{"parameterUnit":"m.s-1","parameterCategory":1,"la1":30.2991,"la2":30.254,"lo1":-89.0895,"lo2":-89.0444,"dy":0.0017,"dx":0.0017,"nx":28,"ny":28,"refTime":"2023-10-16T09:00:00:Z","depth":0,"parameterNumber":2,"parameterNumberName":"U-component_of_WINDS"},"data":[0,0,0,0,0,0,0,0,0,0,0,0,0,0,0,0,0,0,0,0,0,0,0,0,0,0,0,0,0,0,0,0,0,0,0,0,0,0,0,0,0,0,0,0,0,0,0,0,0,0,0,0,0,0,0,0,0,0,2.7308,2.7308,0,2.7306,2.7306,2.7306,2.7242,2.724,2.7239,2.7237,2.7236,2.7237,2.7239,0,0,0,0,0,0,0,0,0,0,0,0,0,2.7256,2.7257,2.7308,2.7308,2.7308,2.7307,2.7306,2.7306,2.7242,2.724,2.7238,2.7236,2.7235,2.7237,2.7239,0,0,0,0,0,0,0,0,0,0,0,0,0,2.7269,2.7258,2.7308,2.7276,2.7273,2.7307,2.7306,2.7306,2.7243,2.724,2.7238,2.7235,2.7235,2.7237,2.7239,2.7303,0,0,2.7246,2.7247,0,0,0,0,0,0,0,0,2.7268,2.7271,2.728,2.7278,2.7275,2.7272,2.7288,2.7305,2.7243,2.7254,2.7237,2.7234,2.725,2.7251,2.7256,2.7303,2.7303,2.7246,2.7248,2.7249,2.7249,0,0,0,0,0,0,0,2.7267,2.7271,2.7307,2.7281,2.7277,2.7262,2.7261,2.7291,2.7266,2.7253,2.7248,2.7249,2.7248,2.7254,2.7255,2.7303,2.7246,2.7248,2.725,2.7251,2.7405,2.7408,0,0,0,0,0,0,2.7271,2.727,2.7307,2.7307,2.7265,2.7265,2.7264,2.7275,2.7266,2.7262,2.7251,2.7246,2.7251,2.7253,2.7255,2.733,2.7249,2.7251,2.7252,2.7402,2.7406,2.7409,0,0,0,0,0,0,2.727,2.7275,2.7307,2.7288,2.729,2.7268,2.7282,2.7277,2.7283,2.7264,2.726,2.7262,2.7249,2.7252,2.7292,2.7329,2.7252,2.7254,2.7399,2.7403,2.7407,2.7481,0,0,0,0,0,0,2.7269,2.7275,2.7299,2.7289,2.7292,2.7344,2.7284,2.7278,2.7287,2.728,2.7273,2.7269,2.7247,2.7289,2.7295,2.7331,2.7256,2.7396,2.7401,2.7406,2.7475,2.7487,2.7498,0,0,0,0,0,2.7267,2.7319,2.73,2.7305,2.7321,2.7347,2.7348,2.7322,2.729,2.7314,2.7303,2.727,2.7325,2.7294,2.7299,2.7337,2.7393,2.7399,2.7405,2.747,2.7485,2.7497,0,0,0,0,0,0,2.7334,2.7317,2.7296,2.7346,2.7348,2.7336,2.7365,2.7338,2.7349,2.7343,2.731,2.7309,2.7354,2.735,2.7316,2.74,2.7353,2.7361,2.7401,2.7415,2.7425,2.7425,2.7258,0,0,0,0,0,2.7355,2.7376,2.7361,2.7407,2.7409,2.7387,2.7397,2.7377,2.7378,2.7378,2.737,2.7372,2.739,2.7402,2.7417,2.7475,2.7473,2.7504,2.7515,2.7524,2.7531,2.7562,2.7576,2.7429,2.7429,2.7429,0,0,2.7397,2.7391,2.7406,2.742,2.7419,2.7443,2.7388,2.7415,2.7433,2.7382,2.742,2.7414,2.7414,2.7464,2.7485,2.7462,2.7571,2.7532,2.754,2.7541,2.757,2.7584,2.7596,2.7433,2.7432,2.7432,0,0,2.7487,2.7484,2.7522,2.7523,2.7523,2.7509,2.7518,2.751,2.7504,2.7542,2.7505,2.7525,2.7557,2.7559,2.7564,2.7657,2.7627,2.7663,2.7721,2.7752,2.7763,2.7773,2.7807,2.7819,2.767,2.767,2.767,0,2.7539,2.7574,2.7546,2.7576,2.7583,2.754,2.7579,2.7581,2.7586,2.7592,2.7566,2.7605,2.7602,2.7652,2.7675,2.7681,2.7691,2.7663,2.7764,2.7774,2.7783,2.7814,2.7827,2.7674,2.7674,2.7673,2.7673,0,2.7639,2.7663,2.7695,2.7701,2.7712,2.7747,2.7724,2.7739,2.7719,2.7707,2.7747,2.7742,2.7756,2.7767,2.7747,2.7815,2.78,2.7769,2.7722,2.7801,2.7831,2.7842,2.7681,2.7679,2.7678,2.7677,0,0,2.7768,2.7761,2.7772,2.7775,2.7773,2.7792,2.7825,2.7839,2.7853,2.7859,2.7886,2.7914,2.7886,2.7892,2.7873,2.79,2.7975,2.7866,2.7865,2.7886,2.805,2.8072,2.8087,2.7956,2.7958,2.796,2.805,0,2.7855,2.7911,2.7888,2.7946,2.7969,2.7929,2.7958,2.796,2.7951,2.7969,2.7959,2.798,2.7941,2.7945,2.797,2.796,2.8007,2.7953,2.7981,2.7982,2.7981,2.8102,2.8126,2.8211,2.8061,2.8063,2.8064,0,2.7963,2.7974,2.8035,2.803,2.8039,2.8065,2.8077,2.8095,2.8097,2.8089,2.8097,2.8072,2.8105,2.8059,2.8104,2.8068,2.8078,2.8075,2.8078,2.8079,2.8027,2.8106,2.8237,2.825,2.8082,2.808,2.8079,0,2.8052,2.8081,2.8122,2.8126,2.8121,2.8141,2.814,2.814,2.815,2.8161,2.8168,2.8183,2.819,2.8203,2.8182,2.8151,2.8231,2.8183,2.8225,2.8226,2.8243,2.8242,2.8377,2.825,2.825,2.825,2.825,0,2.815,2.8189,2.8162,2.8187,2.8229,2.8203,2.8246,2.8241,2.8241,2.8265,2.8232,2.8254,2.8227,2.8247,2.8232,2.8272,2.8276,2.827,2.8265,2.8273,2.8273,2.8278,2.8271,2.8253,2.8253,2.8252,2.8251,0,2.8256,2.8239,2.828,2.8273,2.8273,2.8304,2.8298,2.8322,2.8311,2.8341,2.8347,2.833,2.8353,2.8334,2.8356,2.8346,2.8399,2.8386,2.8398,2.8394,2.8438,2.8434,2.858,2.8598,2.8461,2.8462,2.8463,0,2.8319,2.8348,2.8345,2.8359,2.836,2.8382,2.8393,2.8369,2.8382,2.8388,2.8411,2.8431,2.8445,2.8483,2.8473,2.849,2.8477,2.8527,2.8479,2.8486,2.8478,2.8476,2.8479,2.8537,2.8538,2.854,2.8541,0,2.8434,2.8425,2.8442,2.8458,2.8472,2.8483,2.849,2.8504,2.8479,2.8496,2.8519,2.853,2.8553,2.8573,2.8587,2.8586,2.856,2.8556,2.8567,2.8574,2.858,2.8578,2.8424,2.8553,2.8551,2.8551,2.855,2.855,2.852,2.8545,2.8547,2.8568,2.8571,2.858,2.8602,2.8595,2.8613,2.863,2.8615,2.8643,2.8646,2.8662,2.8665,2.8687,2.8666,2.8681,2.8685,2.8689,2.8695,2.8578,2.8689,2.8689,2.8689,2.8688,2.8688,0,2.8634,2.8634,2.8653,2.8666,2.8683,2.8657,2.8665,2.8681,2.8706,2.8711,2.8727,2.8754,2.8774,2.8766,2.8784,2.8803,2.8792,2.8809,2.8807,2.8807,2.8713,2.8702,2.8818,2.8818,2.8818,2.8818,2.8818,2.8818,2.8694,2.8735,2.8726,2.8769,2.8768,2.8795,2.8802,2.881,2.8815,2.8847,2.8863,2.8859,2.8859,2.8877,2.8895,2.8892,2.89,2.8922,2.8915,2.8827,2.8814,2.8801,2.8791,2.8924,2.8924,2.9007,2.9008,2.9008]},{"header":{"parameterUnit":"m.s-1","parameterCategory":1,"la1":30.2991,"la2":30.254,"lo1":-89.0895,"lo2":-89.0444,"dy":0.0017,"dx":0.0017,"nx":28,"ny":28,"refTime":"2023-10-16T09:00:00:Z","depth":0,"parameterNumber":3,"parameterNumberName":"V-component_of_WINDS"},"data":[0,0,0,0,0,0,0,0,0,0,0,0,0,0,0,0,0,0,0,0,0,0,0,0,0,0,0,0,0,0,0,0,0,0,0,0,0,0,0,0,0,0,0,0,0,0,0,0,0,0,0,0,0,0,0,0,0,0,-6.327,-6.3272,0,-6.3504,-6.3507,-6.351,-6.3478,-6.3474,-6.3471,-6.3467,-6.3702,-6.3712,-6.3722,0,0,0,0,0,0,0,0,0,0,0,0,0,-6.2791,-6.28,-6.3269,-6.3273,-6.3275,-6.3504,-6.3507,-6.351,-6.3479,-6.3474,-6.347,-6.3465,-6.3699,-6.3711,-6.3723,0,0,0,0,0,0,0,0,0,0,0,0,0,-6.301,-6.2803,-6.3269,-6.3287,-6.3291,-6.3503,-6.3507,-6.3511,-6.348,-6.3474,-6.3468,-6.3463,-6.3695,-6.371,-6.3724,-6.3931,0,0,-6.377,-6.3776,0,0,0,0,0,0,0,0,-6.2997,-6.3027,-6.3282,-6.3287,-6.3291,-6.3456,-6.3425,-6.3652,-6.3481,-6.3408,-6.3467,-6.346,-6.3625,-6.3645,-6.3702,-6.3942,-6.3953,-6.3771,-6.378,-6.3786,-6.379,0,0,0,0,0,0,0,-6.2982,-6.3017,-6.3362,-6.3285,-6.3291,-6.3283,-6.3308,-6.3468,-6.3546,-6.3414,-6.3412,-6.3441,-6.3626,-6.3687,-6.3707,-6.3956,-6.377,-6.3784,-6.3793,-6.3798,-6.4381,-6.4387,0,0,0,0,0,0,-6.2963,-6.3004,-6.3355,-6.3369,-6.3127,-6.3296,-6.3324,-6.3409,-6.3544,-6.3559,-6.3446,-6.3439,-6.3665,-6.369,-6.3715,-6.3969,-6.3786,-6.38,-6.3808,-6.4374,-6.4382,-6.4389,0,0,0,0,0,0,-6.2953,-6.2994,-6.3345,-6.3187,-6.3231,-6.3311,-6.3407,-6.3417,-6.3478,-6.3568,-6.3581,-6.3494,-6.3661,-6.3694,-6.3879,-6.3976,-6.3807,-6.382,-6.4366,-6.4377,-6.4386,-6.4476,0,0,0,0,0,0,-6.2939,-6.2991,-6.3071,-6.3189,-6.3239,-6.3506,-6.3413,-6.3426,-6.3504,-6.3497,-6.3617,-6.3631,-6.3659,-6.3857,-6.3894,-6.3994,-6.3832,-6.4358,-6.4371,-6.4383,-6.4464,-6.4488,-6.4507,0,0,0,0,0,-6.2922,-6.3085,-6.3075,-6.3118,-6.3342,-6.3512,-6.3541,-6.3572,-6.3512,-6.3593,-6.3651,-6.3627,-6.3959,-6.3876,-6.3917,-6.4023,-6.4352,-6.4367,-6.4382,-6.4455,-6.4483,-6.4507,0,0,0,0,0,0,-6.2975,-6.3101,-6.3091,-6.3298,-6.3395,-6.3506,-6.361,-6.36,-6.3714,-6.3703,-6.3734,-6.3762,-6.3949,-6.4004,-6.3909,-6.4231,-6.4147,-6.4171,-6.4189,-6.4217,-6.4237,-6.4221,-6.3844,0,0,0,0,0,-6.3011,-6.314,-6.3243,-6.3415,-6.3465,-6.3529,-6.3604,-6.362,-6.3721,-6.3761,-6.3832,-6.393,-6.4057,-6.4139,-6.426,-6.4472,-6.4498,-6.4565,-6.4586,-6.4603,-6.4624,-6.4742,-6.4773,-6.4438,-6.4438,-6.4438,0,0,-6.3086,-6.3171,-6.325,-6.3428,-6.3505,-6.3638,-6.3564,-6.3706,-6.3805,-6.3782,-6.3962,-6.4018,-6.4129,-6.4329,-6.442,-6.438,-6.4722,-6.4622,-6.4635,-6.4647,-6.476,-6.4792,-6.482,-6.4448,-6.4446,-6.4445,0,0,-6.3292,-6.3369,-6.3522,-6.3601,-6.3719,-6.3761,-6.3798,-6.3912,-6.395,-6.4131,-6.4117,-6.4234,-6.445,-6.4531,-6.46,-6.4839,-6.4821,-6.4877,-6.4989,-6.5104,-6.513,-6.5154,-6.524,-6.5271,-6.4897,-6.4897,-6.4897,0,-6.337,-6.3571,-6.3601,-6.3748,-6.3827,-6.3814,-6.3969,-6.4044,-6.4195,-6.425,-6.4203,-6.4477,-6.455,-6.477,-6.4828,-6.4884,-6.4928,-6.4864,-6.5124,-6.5148,-6.517,-6.5253,-6.5286,-6.4903,-6.4902,-6.4902,-6.4901,0,-6.3662,-6.3802,-6.3911,-6.406,-6.4151,-6.4301,-6.4354,-6.4442,-6.445,-6.4496,-6.4682,-6.477,-6.491,-6.4963,-6.497,-6.5184,-6.5156,-6.5117,-6.5033,-6.5208,-6.5287,-6.5319,-6.4912,-6.491,-6.4908,-6.4906,0,0,-6.3908,-6.4073,-6.4113,-6.4182,-6.4312,-6.442,-6.4569,-6.4708,-6.4784,-6.4888,-6.5015,-6.5199,-6.5165,-6.5243,-6.526,-6.536,-6.5546,-6.5309,-6.5312,-6.5352,-6.5789,-6.5819,-6.5856,-6.5535,-6.5541,-6.5546,-6.578,0,-6.4128,-6.4394,-6.4426,-6.4662,-6.4792,-6.4783,-6.4913,-6.5007,-6.5054,-6.5171,-6.5222,-6.5354,-6.5297,-6.5345,-6.5444,-6.5503,-6.5635,-6.5486,-6.5653,-6.5659,-6.5628,-6.5896,-6.5929,-6.6145,-6.5811,-6.5816,-6.582,0,-6.4419,-6.4535,-6.4785,-6.49,-6.4955,-6.5072,-6.5203,-6.5314,-6.542,-6.5448,-6.5537,-6.5542,-6.5696,-6.5605,-6.5818,-6.5717,-6.5787,-6.5826,-6.5835,-6.5853,-6.5751,-6.5923,-6.6215,-6.6248,-6.5868,-6.5864,-6.5861,0,-6.4576,-6.4794,-6.4972,-6.5031,-6.5168,-6.5251,-6.5311,-6.5412,-6.5494,-6.5608,-6.5662,-6.5791,-6.5862,-6.5962,-6.6001,-6.5931,-6.6213,-6.6125,-6.6241,-6.624,-6.6302,-6.6298,-6.6611,-6.6344,-6.6344,-6.6343,-6.6342,0,-6.4819,-6.4973,-6.5045,-6.5155,-6.5327,-6.5362,-6.5531,-6.5588,-6.5679,-6.5799,-6.5797,-6.591,-6.5954,-6.6074,-6.6106,-6.6279,-6.631,-6.6337,-6.6344,-6.6338,-6.6335,-6.6386,-6.6372,-6.6352,-6.635,-6.6348,-6.6347,0,-6.5024,-6.5078,-6.5272,-6.5387,-6.542,-6.5542,-6.5639,-6.5746,-6.5792,-6.5945,-6.5983,-6.6056,-6.6197,-6.6246,-6.6417,-6.6438,-6.664,-6.6632,-6.6605,-6.6607,-6.672,-6.671,-6.7078,-6.7129,-6.6827,-6.683,-6.6832,0,-6.5176,-6.5295,-6.5423,-6.5505,-6.5569,-6.57,-6.5784,-6.5824,-6.5912,-6.6043,-6.6133,-6.6274,-6.6389,-6.6615,-6.6683,-6.6814,-6.6811,-6.6931,-6.6831,-6.6823,-6.6816,-6.6809,-6.6822,-6.695,-6.6954,-6.6956,-6.6958,0,-6.5442,-6.5463,-6.5586,-6.5719,-6.5821,-6.5927,-6.6029,-6.6096,-6.615,-6.6249,-6.6395,-6.6484,-6.666,-6.68,-6.6935,-6.6996,-6.6988,-6.6989,-6.7023,-6.702,-6.7,-6.7014,-6.6658,-6.6981,-6.6979,-6.6977,-6.6976,-6.6975,-6.5626,-6.5732,-6.584,-6.5977,-6.6059,-6.6155,-6.6262,-6.6323,-6.6445,-6.6593,-6.6608,-6.6765,-6.6869,-6.7049,-6.7117,-6.7241,-6.7207,-6.7256,-6.7269,-6.7281,-6.729,-6.6979,-6.7265,-6.7264,-6.7264,-6.7263,-6.7263,0,-6.5893,-6.5962,-6.6088,-6.6233,-6.6342,-6.6325,-6.6438,-6.653,-6.6669,-6.6767,-6.6881,-6.7049,-6.7186,-6.7265,-6.7402,-6.7485,-6.7485,-6.752,-6.7515,-6.753,-6.7311,-6.7269,-6.7519,-6.7518,-6.7518,-6.7518,-6.7518,-6.7518,-6.6045,-6.6224,-6.6259,-6.6478,-6.6546,-6.6701,-6.6768,-6.6857,-6.6936,-6.7125,-6.7239,-6.729,-6.7382,-6.7525,-6.765,-6.767,-6.7721,-6.776,-6.7777,-6.7571,-6.7545,-6.752,-6.7481,-6.777,-6.7771,-6.7985,-6.7987,-6.7989]}]]